Time,TemperatureF,DewpointF,PressureIn,WindDirection,WindDirectionDegrees,WindSpeedMPH,WindSpeedGustMPH,Humidity,HourlyPrecipIn,Conditions,Clouds,dailyrainin,SoftwareType,DateUTC
2013-02-18 00:02:00,20.0,10.0,-100.00,SSW,195,0.0,2.0,66,0.00,,,-99.99,,2013-02-18 05:02:00,
2013-02-18 00:11:00,20.0,10.0,-100.00,SSW,205,0.0,2.0,65,0.00,,,-99.99,,2013-02-18 05:11:00,
2013-02-18 00:21:00,19.0,11.0,-100.00,SSW,205,0.0,0.0,68,0.00,,,-99.99,,2013-02-18 05:21:00,
2013-02-18 00:32:00,19.0,11.0,-100.00,SW,215,0.0,2.0,69,0.00,,,-99.99,,2013-02-18 05:32:00,
2013-02-18 00:42:00,19.0,11.0,-100.00,South,190,0.0,2.0,70,0.00,,,-99.99,,2013-02-18 05:42:00,
2013-02-18 00:52:00,19.0,11.0,-100.00,South,190,0.0,0.0,71,0.00,,,-99.99,,2013-02-18 05:52:00,
2013-02-18 01:02:00,19.0,12.0,-100.00,WSW,245,0.0,1.0,72,0.00,,,-99.99,,2013-02-18 06:02:00,
2013-02-18 01:11:00,19.0,11.0,-100.00,SW,225,0.0,1.0,72,0.00,,,-99.99,,2013-02-18 06:11:00,
2013-02-18 01:21:00,19.0,12.0,-100.00,SSW,200,0.0,1.0,73,0.00,,,-99.99,,2013-02-18 06:21:00,
2013-02-18 01:32:00,19.0,12.0,-100.00,SSW,195,1.0,2.0,73,0.00,,,-99.99,,2013-02-18 06:32:00,
2013-02-18 01:42:00,19.0,12.0,-100.00,South,185,0.0,2.0,73,0.00,,,-99.99,,2013-02-18 06:42:00,
2013-02-18 01:51:00,19.0,11.0,-100.00,SSW,195,0.0,1.0,72,0.00,,,-99.99,,2013-02-18 06:51:00,
2013-02-18 02:02:00,19.0,11.0,-100.00,SW,220,0.0,2.0,73,0.00,,,-99.99,,2013-02-18 07:02:00,
2013-02-18 02:11:00,19.0,11.0,-100.00,South,185,0.0,3.0,71,0.00,,,-99.99,,2013-02-18 07:11:00,
2013-02-18 02:22:00,19.0,11.0,-100.00,SSW,210,0.0,1.0,71,0.00,,,-99.99,,2013-02-18 07:22:00,
2013-02-18 02:32:00,19.0,11.0,-100.00,South,170,0.0,1.0,72,0.00,,,-99.99,,2013-02-18 07:32:00,
2013-02-18 02:42:00,19.0,11.0,-100.00,South,175,1.0,3.0,73,0.00,,,-99.99,,2013-02-18 07:42:00,
2013-02-18 02:51:00,19.0,12.0,-100.00,South,175,0.0,2.0,73,0.00,,,-99.99,,2013-02-18 07:51:00,
2013-02-18 03:01:00,19.0,11.0,-100.00,South,170,0.0,2.0,73,0.00,,,-99.99,,2013-02-18 08:01:00,
2013-02-18 03:11:00,19.0,12.0,-100.00,South,170,0.0,1.0,73,0.00,,,-99.99,,2013-02-18 08:11:00,
2013-02-18 03:21:00,19.0,12.0,-100.00,South,170,0.0,0.0,73,0.00,,,-99.99,,2013-02-18 08:21:00,
2013-02-18 03:32:00,19.0,12.0,-100.00,South,170,0.0,1.0,73,0.00,,,-99.99,,2013-02-18 08:32:00,
2013-02-18 03:42:00,19.0,12.0,-100.00,South,170,0.0,0.0,75,0.00,,,-99.99,,2013-02-18 08:42:00,
2013-02-18 03:52:00,19.0,12.0,-100.00,South,170,0.0,0.0,75,0.00,,,-99.99,,2013-02-18 08:52:00,
2013-02-18 04:03:00,19.0,12.0,-100.00,SSE,165,0.0,1.0,76,0.00,,,-99.99,,2013-02-18 09:03:00,
2013-02-18 04:11:00,19.0,13.0,-100.00,SSE,165,0.0,1.0,76,0.00,,,-99.99,,2013-02-18 09:11:00,
2013-02-18 04:22:00,19.0,13.0,-100.00,SSE,165,0.0,1.0,77,0.00,,,-99.99,,2013-02-18 09:22:00,
2013-02-18 04:32:00,19.0,13.0,-100.00,SSE,155,0.0,0.0,76,0.00,,,-99.99,,2013-02-18 09:32:00,
2013-02-18 04:42:00,19.0,13.0,-100.00,SSE,155,0.0,1.0,75,0.00,,,-99.99,,2013-02-18 09:42:00,
2013-02-18 04:52:00,19.0,12.0,-100.00,SSE,155,0.0,2.0,76,0.00,,,-99.99,,2013-02-18 09:52:00,
2013-02-18 05:01:00,20.0,13.0,-100.00,SSE,155,0.0,3.0,73,0.00,,,-99.99,,2013-02-18 10:01:00,
2013-02-18 05:11:00,21.0,13.0,-100.00,South,180,1.0,6.0,70,0.00,,,-99.99,,2013-02-18 10:11:00,
2013-02-18 05:21:00,21.0,13.0,-100.00,South,170,0.0,4.0,69,0.00,,,-99.99,,2013-02-18 10:21:00,
2013-02-18 05:32:00,21.0,12.0,-100.00,SSE,165,0.0,3.0,69,0.00,,,-99.99,,2013-02-18 10:32:00,
2013-02-18 05:42:00,20.0,12.0,-100.00,SSW,195,0.0,7.0,69,0.00,,,-99.99,,2013-02-18 10:42:00,
2013-02-18 05:52:00,20.0,12.0,-100.00,North,5,0.0,1.0,72,0.00,,,-99.99,,2013-02-18 10:52:00,
2013-02-18 06:02:00,20.0,13.0,-100.00,NW,325,0.0,2.0,73,0.00,,,-99.99,,2013-02-18 11:02:00,
2013-02-18 06:11:00,19.0,12.0,-100.00,North,0,1.0,2.0,73,0.00,,,-99.99,,2013-02-18 11:11:00,
2013-02-18 06:22:00,20.0,13.0,-100.00,NNE,20,1.0,3.0,73,0.00,,,-99.99,,2013-02-18 11:22:00,
2013-02-18 06:32:00,19.0,13.0,-100.00,NNW,345,0.0,2.0,74,0.00,,,-99.99,,2013-02-18 11:32:00,
2013-02-18 06:42:00,21.0,14.0,-100.00,North,355,1.0,3.0,73,0.00,,,-99.99,,2013-02-18 11:42:00,
2013-02-18 06:52:00,21.0,14.0,-100.00,North,0,2.0,4.0,71,0.00,,,-99.99,,2013-02-18 11:52:00,
2013-02-18 07:11:00,21.0,14.0,-100.00,NNE,15,2.0,4.0,72,0.00,,,-99.99,,2013-02-18 12:11:00,
2013-02-18 07:22:00,22.0,14.0,-100.00,NNE,15,2.0,5.0,70,0.00,,,-99.99,,2013-02-18 12:22:00,
2013-02-18 07:32:00,22.0,14.0,-100.00,North,0,2.0,6.0,69,0.00,,,-99.99,,2013-02-18 12:32:00,
2013-02-18 07:42:00,22.0,14.0,-100.00,North,0,2.0,6.0,69,0.00,,,-99.99,,2013-02-18 12:42:00,
2013-02-18 07:52:00,24.0,14.0,-100.00,North,355,2.0,6.0,66,0.00,,,-99.99,,2013-02-18 12:52:00,
2013-02-18 08:03:00,24.0,14.0,-100.00,NE,50,2.0,6.0,64,0.00,,,-99.99,,2013-02-18 13:03:00,
2013-02-18 08:12:00,24.0,14.0,-100.00,North,0,2.0,5.0,63,0.00,,,-99.99,,2013-02-18 13:12:00,
2013-02-18 08:23:00,25.0,14.0,-100.00,North,0,3.0,9.0,62,0.00,,,-99.99,,2013-02-18 13:23:00,
2013-02-18 08:32:00,25.0,14.0,-100.00,North,0,2.0,7.0,61,0.00,,,-99.99,,2013-02-18 13:32:00,
2013-02-18 08:42:00,26.0,14.0,-100.00,East,80,2.0,8.0,60,0.00,,,-99.99,,2013-02-18 13:42:00,
2013-02-18 08:53:00,28.0,14.0,-100.00,North,0,2.0,9.0,56,0.00,,,-99.99,,2013-02-18 13:53:00,
2013-02-18 09:02:00,29.0,15.0,-100.00,SSW,210,2.0,9.0,55,0.00,,,-99.99,,2013-02-18 14:02:00,
2013-02-18 09:11:00,30.0,15.0,-100.00,NNE,15,3.0,10.0,53,0.00,,,-99.99,,2013-02-18 14:11:00,
2013-02-18 09:22:00,32.0,15.0,-100.00,NNW,345,2.0,9.0,50,0.00,,,-99.99,,2013-02-18 14:22:00,
2013-02-18 09:33:00,33.0,16.0,-100.00,North,355,2.0,12.0,48,0.00,,,-99.99,,2013-02-18 14:33:00,
2013-02-18 09:42:00,35.0,17.0,-100.00,South,190,4.0,12.0,46,0.00,,,-99.99,,2013-02-18 14:42:00,
2013-02-18 09:53:00,36.0,17.0,-100.00,SW,215,4.0,14.0,45,0.00,,,-99.99,,2013-02-18 14:53:00,
2013-02-18 10:02:00,37.0,18.0,-100.00,South,190,4.0,12.0,44,0.00,,,-99.99,,2013-02-18 15:02:00,
2013-02-18 10:11:00,39.0,18.0,-100.00,SSW,205,11.0,19.0,42,0.00,,,-99.99,,2013-02-18 15:11:00,
2013-02-18 10:22:00,40.0,19.0,-100.00,SSW,210,10.0,14.0,42,0.00,,,-99.99,,2013-02-18 15:22:00,
2013-02-18 10:32:00,41.0,19.0,-100.00,SSW,210,5.0,17.0,41,0.00,,,-99.99,,2013-02-18 15:32:00,
2013-02-18 10:42:00,41.0,19.0,-100.00,SSW,200,9.0,18.0,41,0.00,,,-99.99,,2013-02-18 15:42:00,
2013-02-18 10:52:00,42.0,20.0,-100.00,SSW,205,9.0,18.0,41,0.00,,,-99.99,,2013-02-18 15:52:00,
2013-02-18 11:03:00,43.0,21.0,-100.00,North,0,4.0,12.0,41,0.00,,,-99.99,,2013-02-18 16:03:00,
2013-02-18 11:12:00,43.0,22.0,-100.00,SW,220,6.0,12.0,42,0.00,,,-99.99,,2013-02-18 16:12:00,
2013-02-18 11:22:00,44.0,22.0,-100.00,SSW,195,4.0,12.0,41,0.00,,,-99.99,,2013-02-18 16:22:00,
2013-02-18 11:32:00,45.0,23.0,-100.00,SW,215,6.0,12.0,41,0.00,,,-99.99,,2013-02-18 16:32:00,
2013-02-18 11:42:00,46.0,24.0,-100.00,ENE,70,6.0,12.0,41,0.00,,,-99.99,,2013-02-18 16:42:00,
2013-02-18 11:52:00,46.0,24.0,-100.00,ENE,70,6.0,12.0,41,0.00,,,-99.99,,2013-02-18 16:52:00,
2013-02-18 12:04:00,47.0,25.0,-100.00,SSW,195,4.0,12.0,40,0.00,,,-99.99,,2013-02-18 17:04:00,
2013-02-18 12:12:00,48.0,25.0,-100.00,SSW,200,8.0,14.0,40,0.00,,,-99.99,,2013-02-18 17:12:00,
2013-02-18 12:22:00,49.0,26.0,-100.00,SW,215,9.0,16.0,41,0.00,,,-99.99,,2013-02-18 17:22:00,
2013-02-18 12:33:00,50.0,27.0,-100.00,SSW,205,9.0,14.0,40,0.00,,,-99.99,,2013-02-18 17:33:00,
2013-02-18 12:42:00,51.0,27.0,-100.00,SSW,205,8.0,14.0,39,0.00,,,-99.99,,2013-02-18 17:42:00,
2013-02-18 12:52:00,52.0,28.0,-100.00,SSW,205,7.0,13.0,39,0.00,,,-99.99,,2013-02-18 17:52:00,
2013-02-18 13:02:00,54.0,30.0,-100.00,NNW,330,4.0,12.0,40,0.00,,,-99.99,,2013-02-18 18:02:00,
2013-02-18 13:12:00,54.0,31.0,-100.00,West,280,4.0,12.0,40,0.00,,,-99.99,,2013-02-18 18:12:00,
2013-02-18 13:23:00,54.0,31.0,-100.00,South,175,3.0,12.0,41,0.00,,,-99.99,,2013-02-18 18:23:00,
2013-02-18 13:33:00,55.0,31.0,-100.00,South,190,6.0,11.0,39,0.00,,,-99.99,,2013-02-18 18:33:00,
2013-02-18 13:42:00,56.0,31.0,-100.00,West,280,5.0,14.0,38,0.00,,,-99.99,,2013-02-18 18:42:00,
2013-02-18 13:52:00,57.0,31.0,-100.00,South,180,4.0,14.0,37,0.00,,,-99.99,,2013-02-18 18:52:00,
2013-02-18 14:03:00,57.0,30.0,-100.00,SW,215,7.0,14.0,36,0.00,,,-99.99,,2013-02-18 19:03:00,
2013-02-18 14:12:00,57.0,30.0,-100.00,SW,215,7.0,14.0,36,0.00,,,-99.99,,2013-02-18 19:12:00,
2013-02-18 14:22:00,57.0,30.0,-100.00,North,0,3.0,11.0,35,0.00,,,-99.99,,2013-02-18 19:22:00,
2013-02-18 14:33:00,58.0,30.0,-100.00,SW,225,4.0,13.0,34,0.00,,,-99.99,,2013-02-18 19:33:00,
2013-02-18 14:42:00,59.0,30.0,-100.00,West,275,5.0,13.0,32,0.00,,,-99.99,,2013-02-18 19:42:00,
2013-02-18 14:53:00,59.0,30.0,-100.00,SE,130,2.0,13.0,32,0.00,,,-99.99,,2013-02-18 19:53:00,
2013-02-18 15:02:00,59.0,29.0,-100.00,SSW,195,5.0,12.0,32,0.00,,,-99.99,,2013-02-18 20:02:00,
2013-02-18 15:12:00,58.0,30.0,-100.00,SSW,205,4.0,14.0,33,0.00,,,-99.99,,2013-02-18 20:12:00,
2013-02-18 15:23:00,59.0,30.0,-100.00,SSW,195,4.0,12.0,32,0.00,,,-99.99,,2013-02-18 20:23:00,
2013-02-18 15:33:00,59.0,30.0,-100.00,East,95,4.0,15.0,33,0.00,,,-99.99,,2013-02-18 20:33:00,
2013-02-18 15:42:00,58.0,30.0,-100.00,SSW,200,4.0,11.0,34,0.00,,,-99.99,,2013-02-18 20:42:00,
2013-02-18 15:52:00,58.0,30.0,-100.00,SSW,205,6.0,12.0,34,0.00,,,-99.99,,2013-02-18 20:52:00,
2013-02-18 16:03:00,58.0,30.0,-100.00,SSW,205,6.0,12.0,34,0.00,,,-99.99,,2013-02-18 21:03:00,
2013-02-18 16:12:00,59.0,31.0,-100.00,NW,325,4.0,12.0,34,0.00,,,-99.99,,2013-02-18 21:12:00,
2013-02-18 16:22:00,59.0,31.0,-100.00,SSW,200,6.0,16.0,34,0.00,,,-99.99,,2013-02-18 21:22:00,
2013-02-18 16:33:00,60.0,32.0,-100.00,SSW,210,6.0,16.0,34,0.00,,,-99.99,,2013-02-18 21:33:00,
2013-02-18 16:43:00,60.0,32.0,-100.00,SSW,210,6.0,16.0,34,0.00,,,-99.99,,2013-02-18 21:43:00,
2013-02-18 16:52:00,59.0,33.0,-100.00,SSW,205,6.0,17.0,36,0.00,,,-99.99,,2013-02-18 21:52:00,
2013-02-18 17:03:00,58.0,33.0,-100.00,SSW,205,4.0,24.0,38,0.00,,,-99.99,,2013-02-18 22:03:00,
2013-02-18 17:12:00,59.0,33.0,-100.00,SSW,205,6.0,16.0,38,0.00,,,-99.99,,2013-02-18 22:12:00,
2013-02-18 17:23:00,59.0,33.0,-100.00,SSW,195,6.0,16.0,37,0.00,,,-99.99,,2013-02-18 22:23:00,
2013-02-18 17:33:00,59.0,33.0,-100.00,SSW,195,6.0,16.0,37,0.00,,,-99.99,,2013-02-18 22:33:00,
2013-02-18 17:43:00,59.0,33.0,-100.00,SSW,200,6.0,17.0,37,0.00,,,-99.99,,2013-02-18 22:43:00,
2013-02-18 17:52:00,58.0,33.0,-100.00,SSW,195,7.0,14.0,37,0.00,,,-99.99,,2013-02-18 22:52:00,
2013-02-18 18:03:00,58.0,32.0,-100.00,SSW,195,6.0,11.0,38,0.00,,,-99.99,,2013-02-18 23:03:00,
2013-02-18 18:12:00,58.0,32.0,-100.00,WSW,240,4.0,12.0,38,0.00,,,-99.99,,2013-02-18 23:12:00,
2013-02-18 18:23:00,58.0,33.0,-100.00,SSW,200,7.0,16.0,38,0.00,,,-99.99,,2013-02-18 23:23:00,
2013-02-18 18:33:00,57.0,32.0,-100.00,SSW,210,2.0,11.0,38,0.00,,,-99.99,,2013-02-18 23:33:00,
2013-02-18 18:43:00,57.0,33.0,-100.00,South,185,6.0,11.0,40,0.00,,,-99.99,,2013-02-18 23:43:00,
2013-02-18 18:52:00,56.0,33.0,-100.00,SSW,205,4.0,12.0,41,0.00,,,-99.99,,2013-02-18 23:52:00,
2013-02-18 19:03:00,56.0,33.0,-100.00,SSW,210,7.0,17.0,41,0.00,,,-99.99,,2013-02-19 00:03:00,
2013-02-18 19:12:00,56.0,33.0,-100.00,SSW,200,7.0,15.0,41,0.00,,,-99.99,,2013-02-19 00:12:00,
2013-02-18 19:22:00,56.0,32.0,-100.00,South,190,5.0,12.0,40,0.00,,,-99.99,,2013-02-19 00:22:00,
2013-02-18 19:34:00,56.0,32.0,-100.00,SW,220,2.0,16.0,39,0.00,,,-99.99,,2013-02-19 00:34:00,
2013-02-18 19:43:00,56.0,32.0,-100.00,SSW,200,5.0,11.0,40,0.00,,,-99.99,,2013-02-19 00:43:00,
2013-02-18 19:53:00,55.0,32.0,-100.00,SSW,205,7.0,16.0,40,0.00,,,-99.99,,2013-02-19 00:53:00,
2013-02-18 20:03:00,55.0,32.0,-100.00,SW,215,6.0,12.0,40,0.00,,,-99.99,,2013-02-19 01:03:00,
2013-02-18 20:24:00,55.0,31.0,-100.00,WSW,245,4.0,16.0,40,0.00,,,-99.99,,2013-02-19 01:24:00,
2013-02-18 20:34:00,54.0,31.0,-100.00,SW,220,4.0,14.0,40,0.00,,,-99.99,,2013-02-19 01:34:00,
2013-02-18 20:44:00,54.0,31.0,-100.00,WSW,240,4.0,12.0,40,0.00,,,-99.99,,2013-02-19 01:44:00,
2013-02-18 20:54:00,54.0,30.0,-100.00,SSW,210,5.0,16.0,40,0.00,,,-99.99,,2013-02-19 01:54:00,
2013-02-18 21:03:00,53.0,30.0,-100.00,SW,230,5.0,19.0,40,0.00,,,-99.99,,2013-02-19 02:03:00,
2013-02-18 21:14:00,54.0,30.0,-100.00,SW,215,6.0,12.0,39,0.00,,,-99.99,,2013-02-19 02:14:00,
2013-02-18 21:23:00,54.0,29.0,-100.00,SSW,195,7.0,16.0,38,0.00,,,-99.99,,2013-02-19 02:23:00,
2013-02-18 21:34:00,54.0,29.0,-100.00,SSW,205,8.0,12.0,38,0.00,,,-99.99,,2013-02-19 02:34:00,
2013-02-18 21:43:00,54.0,30.0,-100.00,SSW,210,7.0,17.0,39,0.00,,,-99.99,,2013-02-19 02:43:00,
2013-02-18 21:53:00,54.0,29.0,-100.00,SSW,200,9.0,17.0,39,0.00,,,-99.99,,2013-02-19 02:53:00,
2013-02-18 22:06:00,54.0,29.0,-100.00,West,280,4.0,10.0,38,0.00,,,-99.99,,2013-02-19 03:06:00,
2013-02-18 22:14:00,53.0,29.0,-100.00,SSW,205,7.0,12.0,38,0.00,,,-99.99,,2013-02-19 03:14:00,
2013-02-18 22:24:00,54.0,29.0,-100.00,SSW,200,6.0,16.0,38,0.00,,,-99.99,,2013-02-19 03:24:00,
2013-02-18 22:34:00,54.0,29.0,-100.00,South,190,4.0,12.0,38,0.00,,,-99.99,,2013-02-19 03:34:00,
2013-02-18 22:44:00,53.0,29.0,-100.00,North,5,2.0,10.0,39,0.55,,,-99.99,,2013-02-19 03:44:00,
2013-02-18 22:53:00,50.0,36.0,-100.00,South,185,7.0,16.0,59,1.69,,,-99.99,,2013-02-19 03:53:00,
2013-02-18 23:03:00,48.0,38.0,-100.00,South,190,5.0,19.0,67,0.55,,,-99.99,,2013-02-19 04:03:00,
2013-02-18 23:14:00,48.0,38.0,-100.00,SSW,200,2.0,11.0,66,0.00,,,-99.99,,2013-02-19 04:14:00,
2013-02-18 23:23:00,49.0,37.0,-100.00,SSW,195,9.0,18.0,63,16.42,,,-99.99,,2013-02-19 04:23:00,
2013-02-18 23:34:00,47.0,38.0,-100.00,SSW,200,11.0,21.0,70,7.36,,,-99.99,,2013-02-19 04:34:00,
2013-02-18 23:43:00,46.0,39.0,-100.00,SSW,195,9.0,14.0,76,7.36,,,-99.99,,2013-02-19 04:43:00,
2013-02-18 23:53:00,46.0,39.0,-100.00,SW,215,4.0,14.0,79,2.83,,,-99.99,,2013-02-19 04:53:00,